Location: Philipsburg
(46.3359°N, 113.2993°W)
Time: 09:37:37
(UTC+00:00)

Envisat - Pass Details

Date: 28 January 2022
Orbit: 764 x 765 km, 98.2° (Epoch: 17 May)

Event Time Altitude Azimuth Distance (km) Brightness Sun altitude
Rises 00:59:32 0° 216° (SW) 3,218 7.3 -5.4°
Reaches altitude 10° 01:02:59 10° 241° (WSW) 2,298 7.2 -6.0°
Maximum altitude 01:05:37 14° 272° (W) 2,029 6.4 -6.4°
Drops below altitude 10° 01:08:15 10° 304° (NW) 2,307 6.0 -6.8°
Sets 01:11:45 0° 329° (NNW) 3,240 6.4 -7.4°
